Regional Weather Roundup
Issued by NWS Albany, NY

Home | Current Version | Previous Version | Text Only | Print | Product List | Glossary On
Versions: 1 2 3 4 5 6 7 8 9 10 11 12 13 14 15 16 17 18 19 20 21 22 23 24 25 26 27 28 29 30 31 32 33 34 35 36 37 38 39 40 41 42 43 44 45 46 47 48 49 50
310
ASUS41 KALY 230310
RWRALY

NEW YORK STATE HOURLY WEATHER ROUNDUP
NATIONAL WEATHER SERVICE ALBANY NY
1100 PM EDT SAT JUL 22 2017

NOTE: "FAIR" INDICATES FEW OR NO CLOUDS BELOW 12,000 FEET WITH NO
SIGNIFICANT WEATHER AND/OR NO OBSTRUCTIONS TO VISIBILITY.

NYZ032-033-038>043-046>054-057>066-NYZ062>081-082-084-230400-
EAST


CITY           SKY/WX    TMP DP  RH WIND       PRES   REMARKS
ALBANY         CLOUDY    70  65  84 SW3       29.81
GLENS FALLS    CLOUDY    69  62  78 N5        29.82S
POUGHKEEPSIE   CLOUDY    73  64  73 CALM      29.77S
NEWBURGH       CLOUDY    73  66  78 N6        29.81R
MONTGOMERY     LGT RAIN  73  68  84 N5        29.79S
ISLIP          CLOUDY    78  69  73 S5        29.77F
NEW YORK CITY  CLOUDY    79  75  87 S6        29.75F
CENTRAL PARK   CLOUDY    78  71  79 CALM      29.78F
$$

NYZ005>009-017-018-044>046-055-056-230400-
CENTRAL


CITY           SKY/WX    TMP DP  RH WIND       PRES   REMARKS
FULTON         CLOUDY    65  63  93 CALM      29.81F FOG
SYRACUSE       CLOUDY    67  64  90 CALM      29.81F
ROME           CLOUDY    67  65  93 SE3       29.83S
ELMIRA         CLOUDY    72  68  87 NE3       29.81S
BINGHAMTON     CLOUDY    68  61  78 NE6       29.84S
$$

NYZ026>034-041>043-087-230400-
NORTH


CITY           SKY/WX    TMP DP  RH WIND       PRES   REMARKS
WATERTOWN      CLOUDY    66  66 100 CALM      29.81F
FORT DRUM      NOT AVBL
OGDENSBURG     FAIR      65  62  91 CALM      29.83S
MASSENA        PTCLDY    65  63  93 CALM      29.84R
SARANAC LAKE   MOCLDY    58  58 100 CALM      29.87S
PLATTSBURGH    MOCLDY    64  59  83 W5        29.83S
$$

NYZ001>004-010>016-019>021-085-230400-
WEST


CITY           SKY/WX    TMP DP  RH WIND       PRES   REMARKS
NIAGARA FALLS  MOCLDY    71  64  78 N5        29.81R
BUFFALO        CLOUDY    70  66  87 NE5       29.80S
DUNKIRK        CLOUDY    72  66  81 NE3       29.79S
JAMESTOWN      CLOUDY    66  61  82 SE6       29.84F
WELLSVILLE     LGT RAIN  67  64  90 S5        29.87F FOG
ROCHESTER      CLOUDY    71  66  84 E3        29.81F
PENN YAN       CLOUDY    67  63  87 CALM      29.82F
$$

             KEY
       WCI = WIND CHILL INDEX
       VSB = VISIBILITY
       HX  = HEAT INDEX
$$




USA.gov is the U.S. government's official web portal to all federal, state and local government web resources and services.